Home > Time Zones > World Clock > Weather > Chile > Arica > Past weeks

Flag for Chile Weather past 2 weeks in Arica, Chile

Now
61 °F

Overcast.


Feels Like: 61 °F
Forecast: 58 / 70 °F
Wind: 8 mph from East

Location: Arica Airport

Current Time: Aug 30, 2015 at 5:24:07 AM

Latest Report: Aug 30, 2015 at 5:00 AM


Visibility: N/A

Pressure: 29.89 "Hg

Humidity: 77%

Dew point: 54 °F

Location of AricaLocation

Historic Weather in Arica — Graph

°F

Arica temperature yesterday

Maximum temperature yesterday: 66 °F (at 12:00 PM)
Minimum temperature yesterday: 59 °F (at 6:00 AM)
Average temperature yesterday: 62 °F

Past Weeks' High & Low Weather Summary

 TemperatureHumidityPressure
High66 °F (Aug 17, 12:00 PM)88% (Aug 16, 10:00 AM)30.07 "Hg (Aug 16, 10:00 AM)
Low57 °F (Aug 26, 11:00 PM)60% (Aug 22, 3:00 PM)29.83 "Hg (Aug 29, 4:00 PM)
Average62 °F79%29.98 "Hg
* Reported Aug 15 4:00 AM — Aug 30 4:00 AM, Arica, Weather by CustomWeather, © 2015

Note: Actual official high and low records may vary slightly from our data, if they occured in-between our weather recording intervals... More about our weather records

Advertising

Arica weather history for previous 24 hours

 ConditionsComfort  
Time TempWeatherWind HumidityBarometerVisibility
4:00 AM
Sun, Aug 30
61 °FOvercast.6 mph77%29.92 "HgN/A
3:00 AM61 °FOvercast.3 mph83%29.92 "HgN/A
2:00 AM61 °FOvercast.2 mph77%29.92 "HgN/A
1:00 AM61 °FPassing clouds.3 mph83%29.92 "HgN/A
12:00 AM59 °FClear.7 mph82%29.92 "Hg10 mi
11:00 PM
Sat, Aug 29
59 °FClear.6 mph77%29.92 "Hg10 mi
10:00 PM61 °FClear.1 mph77%29.92 "Hg10 mi
9:00 PM61 °FClear.2 mph83%29.89 "Hg10 mi
8:00 PM63 °FClear.5 mph77%29.86 "Hg10 mi
7:00 PM63 °FSunny.7 mph77%29.83 "Hg10 mi
6:00 PM63 °FSunny.9 mph77%29.83 "Hg10 mi
5:00 PM64 °FSunny.10 mph73%29.83 "Hg10 mi
4:00 PM64 °FSunny.12 mph68%29.83 "Hg10 mi
3:00 PM64 °FSunny.12 mph68%29.86 "Hg10 mi
2:00 PM64 °FSunny.13 mph68%29.89 "Hg10 mi
1:00 PM64 °FSunny.13 mph68%29.92 "Hg10 mi
12:00 PM66 °FSunny.7 mph64%29.92 "Hg10 mi
11:00 AM63 °FPartly sunny.3 mph73%29.95 "HgN/A
10:00 AM61 °FOvercast.No wind77%29.95 "HgN/A
9:00 AM61 °FOvercast.5 mph77%29.95 "HgN/A
8:00 AM61 °FOvercast.2 mph77%29.95 "HgN/A
7:00 AM59 °FOvercast.8 mph77%29.92 "HgN/A
6:00 AM59 °FOvercast.5 mph77%29.92 "HgN/A
Weather by CustomWeather, © 2015

See weather overviewHow to use our weather pages